Powrót do katalogu

STARLINK-32334

AktywnyŁącznośćVLEO
NORAD 62023·PAYLOAD·🇺🇸 United States

Wystrzelony Nov 18, 2024 z Vandenberg Space Force Base

Loading…

Następne Przeloty (najbliższe 24 godziny)

TLE

ŚwieżeSource: CelesTrak SupGP

Epoka: Sep 14, 2026, 20:48 UTC

1 62023C 24213R   26257.86715278  .00024970  00000+0  73797-3 0  2575
2 62023  53.1608   8.1281 0001208  81.6273  35.2400 15.34369286    18

Śledź STARLINK-32334 w czasie rzeczywistym z AllMySat

Download on the App Store